Preview of NWS' New Version of Forecast
This preview is not operational and should not be used for support decisions.

Regional Weather Roundup (RWR)

Issued by National Weather Service (NWS)

                            
000
ASUS43 KMKX 231000
RWRWI 

WISCONSIN REGIONAL WEATHER ROUNDUP
NATIONAL WEATHER SERVICE MILWAUKEE/SULLIVAN WI
400 AM CST SAT FEB 23 2019

NOTE: "FAIR" INDICATES FEW OR NO CLOUDS BELOW 12,000 FEET WITH NO
SIGNIFICANT WEATHER AND/OR OBSTRUCTIONS TO VISIBILITY.

WIZ001-002-006>008-014>016-023>028-231100-
NORTHWEST WISCONSIN
  
CITY           SKY/WX    TMP DP  RH WIND       PRES   REMARKS
SUPERIOR ARPT  CLOUDY    25  22  88 NE6       30.14F WCI  18          
ASHLAND        LGT SNOW  26  23  88 NE7       30.16F FOG     WCI  18  
HAYWARD        CLOUDY    27  24  89 E8        30.10F FOG     WCI  19  
SIREN          LGT SNOW  26  22  84 CALM      30.10F                  
CUMBERLAND     LGT SNOW  27  23  86 SE10      30.10F WCI  17          
RICE LAKE      LGT SNOW  28  20  73 E7        30.13F WCI  20          
CHETEK         LGT SNOW  27  24  89 E3        30.12F                  
LADYSMITH      LGT SNOW  29  25  85 SE6       30.14F WCI  23          
EAU CLAIRE     LGT SNOW  26  24  92 E8        30.10F VSB 3/4 WCI  18  
MENOMONIE      LGT SNOW  24  24  99 E9        30.10F WCI  14          
NEW RICHMOND   LGT SNOW  28  21  76 SE9       30.07F WCI  19          
OSCEOLA        LGT SNOW  27  26  94 SE9       30.13F WCI  18          
$$
 
WIZ003>005-009-010-017-018-231100-
NORTH CENTRAL WISCONSIN
  
CITY           SKY/WX    TMP DP  RH WIND       PRES   REMARKS
MANITOWISH WTR NOT AVBL                                               
ARBOR VITAE    CLOUDY    27  25  92 E5        30.14F WCI  21          
WOODRUFF       CLOUDY    27  25  92 E5        30.14F WCI  21          
RHINELANDER    NOT AVBL                                               
EAGLE RIVER    LGT SNOW  25  22  91 E7        30.16F WCI  17          
LAND O LAKES   LGT SNOW  25  23  93 E6        30.18F WCI  18          
PHILLIPS       CLOUDY    26  25  96 E5        30.12F WCI  20          
TOMAHAWK       CLOUDY    25  21  85 E3        30.15F                  
MEDFORD        LGT SNOW  23  21  91 E7        30.11F VSB 3/4 WCI  15  
MERRILL        CLOUDY    28  19  71 SE10      30.17F WCI  18          
$$
 
WIZ029-030-035-036-043>047-231100-
CENTRAL WISCONSIN
  
CITY           SKY/WX    TMP DP  RH WIND       PRES   REMARKS
WAUSAU         LGT SNOW  25  19  78 SE10      30.17  VSB 1   WCI  15  
MOSINEE        CLOUDY    27  18  69 E8        30.15F WCI  18          
MARSHFIELD     NOT AVBL                                               
STEVENS POINT  CLOUDY    26  17  70 E10       30.15F WCI  16          
WAUPACA        CLOUDY    30  21  68 E9        30.19F WCI  22          
WAUTOMA        NOT AVBL                                               
WISC RAPIDS    CLOUDY    28  17  63 E9        30.15F WCI  19          
CAMP DOUGLAS   LGT SNOW  28  27  98 E13         N/A  FOG     WCI  17  
$$
 
WIZ011>013-019>022-031-037>040-048>050-231100-
NORTHEAST WISCONSIN
  
CITY           SKY/WX    TMP DP  RH WIND       PRES   REMARKS
ANTIGO         CLOUDY    25  17  71 E13       30.19S WCI  13          
SHAWANO        CLOUDY    28  20  73 NE7       30.22F WCI  20          
OCONTO         CLOUDY    26  20  77 NE7       30.25F WCI  19          
STURGEON BAY   CLOUDY    30  27  88 E7        30.27F WCI  23          
GREEN BAY      CLOUDY    29  23  78 NE6       30.23F WCI  23          
MANITOWOC      CLOUDY    32  28  85 E10       30.23F WCI  24          
APPLETON       CLOUDY    28  21  74 NE6       30.19F WCI  22          
CLINTONVILLE   CLOUDY    28  18  64 E5        30.23F WCI  23          
OSHKOSH        CLOUDY    29  26  89 NE8       30.19F FOG     WCI  21  
$$
 
WIZ032>034-041-042-053>061-231100-
SOUTHWEST WISCONSIN
  
CITY           SKY/WX    TMP DP  RH WIND       PRES   REMARKS
LA CROSSE      MIX PCPN  31  28  89 NW3       30.08F FOG              
SPARTA         LGT SNOW  29  24  81 E9        30.11F WCI  21          
VIROQUA        CLOUDY    30  27  89 E10       30.04F WCI  21          
BOSCOBEL       CLOUDY    32  26  78 E5        30.07F HAZE    WCI  27  
PRAIRIE DU CHI MIX PCPN  32  28  84 E8        30.06R WCI  25          
PLATTEVILLE    CLOUDY    32  32  99 E16G24    30.05F WCI  21          
$$

WIZ056-057-062-063-064-067-068-231100-
SOUTH CENTRAL WISCONSIN
  
CITY           SKY/WX    TMP DP  RH WIND       PRES   REMARKS
REEDSBURG      LGT RAIN  29  23  79 E9        30.09F WCI  20          
BARABOO/DELLS  CLOUDY    29  23  78 E10       30.10F WCI  20          
LONE ROCK      NOT AVBL                                               
MINERAL POINT  MIX PCPN  32  32 100 E14       30.05F WCI  22          
MADISON        MIX PCPN  31  26  82 E14       30.10F WCI  21          
MIDDLETON      CLOUDY    32  28  83 E14       30.10F WCI  22          
WATERTOWN      CLOUDY    32  29  88 NE5       30.14F WCI  27          
MONROE         MIX PCPN  32  28  86 MISG      30.05F                  
JANESVILLE     CLOUDY    34  30  86 E10       30.10F WCI  26          
$$
 
WIZ051-052-058>065-066-070>072-231100-
SOUTHEAST WISCONSIN
  
CITY           SKY/WX    TMP DP  RH WIND       PRES   REMARKS
MILWAUKEE      CLOUDY    35  28  75 E12       30.15F HAZE    WCI  27  
WAUKESHA       CLOUDY    32  28  86 E7        30.16F WCI  26          
MILWAUKEE/TIMM CLOUDY    32  27  80 E8        30.17F HAZE    WCI  25  
RACINE         CLOUDY    34  28  79 SE10      30.16F WCI  26          
KENOSHA        CLOUDY    35  30  82 E12       30.13F WCI  27          
FOND DU LAC    CLOUDY    31  26  82 NE9       30.19F WCI  23          
SHEBOYGAN      CLOUDY    32  26  78 E9        30.19F WCI  24          
WEST BEND      CLOUDY    32  30  93 E9        30.16F WCI  24          
JUNEAU         CLOUDY    31  26  80 NE3       30.18R                  
$$

LSZ147-162-231100-
LAKE SUPERIOR
  
STATION/POSITION TIME  TEMP    WIND        PRES    WAVE
                       AIR SEA DIR/SP/G            HT/PER
                 (UTC) (F)     (DEG/KT/KT) (MB)    (FT/S)
DEVILS ISLAND    0900   28      70/ 11/ 12 1024.5F
SAXON HARBOR     0940   26      70/  2/  3 1021.7F
$$
 
LMZ867-665-643>646-231100-
LAKE MICHIGAN
  
STATION/POSITION TIME  TEMP    WIND        PRES    WAVE
                       AIR SEA DIR/SP/G            HT/PER
                 (UTC) (F)     (DEG/KT/KT) (MB)    (FT/S)
CHAMBERS ISLAND  0940   18      20/  3/  4 1024.4F
NORTHPORT PIER   0903   31      90/  4/  6 1025.7
KEWAUNEE LAKESHO 0930   32      60/  8/ 10 1023.4S
SHEBOYGAN LAKESH 0900   33     110/ 12/ 12 1024.0F
PORT WASHINGTON  0930   34      80/  8/  9 1023.4F
MILWAUKEE LAKESH 0930   34      90/  8/ 10   N/A
KENOSHA   LAKESH 0900   34     130/ 12/ 15 1021.7
$$

TC  - TEMPERATURE IN CELSIUS
VSB - VISIBILITY IN STATUTE MILES
WCI - WIND CHILL INDEX
HX  - HEAT INDEX